• In Deutschland
  • Länderverzeichnis
  • Für 7 Tage
  • Wassertemperatur
  • Satellitenkarten
  • Wetterkarte
  • Widgets
  • user-avatar
    Anmelden

    Stündliche Wetter Bayrischzell

    Heute, 18 August, Samstag

    Zeit Temperatur Niederschläge Wind Luftdruck Luftfeuchtigkeit
    00:00 +13°C° 0,1 mm 1 m/S 657 mmHg 88%
    01:00 +13°C° 0,1 mm 1 m/S 657 mmHg 88%
    02:00 +13°C° 0,1 mm 1 m/S 657 mmHg 89%
    03:00 +12°C° 0,1 mm 1 m/S 657 mmHg 89%
    04:00 +12°C° 0,1 mm 1 m/S 657 mmHg 89%
    05:00 +13°C° 0 mm 1 m/S 657 mmHg 87%
    06:00 +14°C° 0 mm 1 m/S 658 mmHg 86%
    07:00 +14°C° 0 mm 1 m/S 658 mmHg 85%
    08:00 +16°C° 0 mm 1 m/S 659 mmHg 79%
    09:00 +19°C° 0 mm 1 m/S 659 mmHg 74%
    10:00 +20°C° 0 mm 2 m/S 660 mmHg 68%
    11:00 +20°C° 0,2 mm 2 m/S 660 mmHg 66%
    12:00 +21°C° 0,2 mm 2 m/S 660 mmHg 64%
    13:00 +21°C° 0,2 mm 2 m/S 660 mmHg 62%
    14:00 +21°C° 0,5 mm 2 m/S 660 mmHg 66%
    15:00 +21°C° 0,5 mm 2 m/S 660 mmHg 69%
    16:00 +20°C° 0,5 mm 2 m/S 659 mmHg 73%
    17:00 +19°C° 0,5 mm 2 m/S 659 mmHg 79%
    18:00 +18°C° 0,5 mm 1 m/S 659 mmHg 85%
    19:00 +16°C° 0,5 mm 1 m/S 659 mmHg 91%
    20:00 +15°C° 0,5 mm 1 m/S 659 mmHg 93%
    21:00 +15°C° 0,5 mm 1 m/S 659 mmHg 95%
    22:00 +14°C° 0,5 mm 1 m/S 659 mmHg 96%
    23:00 +14°C° 0,2 mm 1 m/S 659 mmHg 97%

    Morgen, 19 August, Sonntag

    Zeit Temperatur Niederschläge Wind Luftdruck Luftfeuchtigkeit
    00:00 +13°C° 0,2 mm 1 m/S 659 mmHg 97%
    01:00 +13°C° 0,2 mm 1 m/S 659 mmHg 97%
    02:00 +13°C° 0,1 mm 1 m/S 659 mmHg 97%
    03:00 +13°C° 0,1 mm 1 m/S 659 mmHg 97%
    04:00 +12°C° 0,1 mm 1 m/S 659 mmHg 97%
    05:00 +12°C° 0 mm 0 m/S 659 mmHg 96%
    06:00 +13°C° 0 mm 0 m/S 659 mmHg 94%
    07:00 +14°C° 0 mm 0 m/S 659 mmHg 93%
    08:00 +15°C° 0,1 mm 0 m/S 660 mmHg 86%
    09:00 +19°C° 0,1 mm 1 m/S 660 mmHg 79%
    10:00 +21°C° 0,1 mm 1 m/S 661 mmHg 71%
    11:00 +21°C° 0,7 mm 1 m/S 661 mmHg 70%
    12:00 +22°C° 0,7 mm 1 m/S 660 mmHg 69%
    13:00 +21°C° 0,7 mm 2 m/S 660 mmHg 68%
    14:00 +21°C° 1 mm 2 m/S 660 mmHg 70%
    15:00 +22°C° 1 mm 1 m/S 660 mmHg 73%
    16:00 +22°C° 1 mm 1 m/S 660 mmHg 75%
    17:00 +20°C° 0,9 mm 1 m/S 659 mmHg 80%
    18:00 +19°C° 0,9 mm 1 m/S 659 mmHg 86%
    19:00 +15°C° 0,9 mm 0 m/S 659 mmHg 91%
    20:00 +16°C° 0,5 mm 1 m/S 659 mmHg 92%
    21:00 +15°C° 0,5 mm 1 m/S 659 mmHg 93%
    22:00 +14°C° 0,5 mm 1 m/S 659 mmHg 95%
    23:00 +14°C° 0,1 mm 1 m/S 659 mmHg 95%

    übermorgen, 20 August, Montag

    Zeit Temperatur Niederschläge Wind Luftdruck Luftfeuchtigkeit
    00:00 +14°C° 0,1 mm 1 m/S 658 mmHg 95%
    01:00 +13°C° 0,1 mm 1 m/S 658 mmHg 95%
    02:00 +13°C° 0 mm 1 m/S 658 mmHg 95%
    03:00 +13°C° 0 mm 1 m/S 658 mmHg 96%
    04:00 +12°C° 0 mm 1 m/S 657 mmHg 96%
    05:00 +13°C° 0 mm 1 m/S 658 mmHg 94%
    06:00 +14°C° 0 mm 1 m/S 658 mmHg 93%
    07:00 +15°C° 0 mm 1 m/S 658 mmHg 92%
    08:00 +16°C° 0 mm 1 m/S 659 mmHg 85%
    09:00 +19°C° 0 mm 1 m/S 659 mmHg 77%
    10:00 +21°C° 0 mm 1 m/S 659 mmHg 70%
    11:00 +22°C° 0,4 mm 1 m/S 659 mmHg 68%
    12:00 +22°C° 0,4 mm 1 m/S 659 mmHg 67%
    13:00 +23°C° 0,4 mm 1 m/S 659 mmHg 65%
    14:00 +23°C° 0,8 mm 1 m/S 659 mmHg 67%
    15:00 +22°C° 0,8 mm 1 m/S 659 mmHg 69%
    16:00 +22°C° 0,8 mm 1 m/S 658 mmHg 71%
    17:00 +20°C° 0,7 mm 1 m/S 658 mmHg 77%
    18:00 +19°C° 0,7 mm 1 m/S 658 mmHg 83%
    19:00 +15°C° 0,7 mm 0 m/S 658 mmHg 88%
    20:00 +16°C° 0,4 mm 1 m/S 658 mmHg 90%
    21:00 +15°C° 0,4 mm 1 m/S 658 mmHg 92%
    22:00 +14°C° 0,4 mm 2 m/S 658 mmHg 93%
    23:00 +14°C° 0 mm 2 m/S 658 mmHg 94%

    21 August, Dienstag

    Zeit Temperatur Niederschläge Wind Luftdruck Luftfeuchtigkeit
    00:00 +13°C° 0 mm 1 m/S 658 mmHg 94%
    01:00 +13°C° 0 mm 1 m/S 658 mmHg 95%
    02:00 +13°C° 0 mm 1 m/S 658 mmHg 94%
    03:00 +12°C° 0 mm 1 m/S 657 mmHg 94%
    04:00 +12°C° 0 mm 1 m/S 657 mmHg 94%
    05:00 +13°C° 0 mm 1 m/S 658 mmHg 92%
    06:00 +14°C° 0 mm 1 m/S 658 mmHg 90%
    07:00 +14°C° 0 mm 1 m/S 658 mmHg 89%
    08:00 +18°C° 0 mm 1 m/S 659 mmHg 81%
    09:00 +20°C° 0 mm 1 m/S 659 mmHg 73%
    10:00 +22°C° 0 mm 1 m/S 660 mmHg 65%
    11:00 +22°C° 0 mm 1 m/S 660 mmHg 61%
    12:00 +23°C° 0 mm 1 m/S 660 mmHg 58%
    13:00 +24°C° 0 mm 2 m/S 660 mmHg 55%
    14:00 +23°C° 0,2 mm 2 m/S 659 mmHg 58%
    15:00 +23°C° 0,2 mm 2 m/S 659 mmHg 61%
    16:00 +23°C° 0,2 mm 2 m/S 659 mmHg 64%
    17:00 +21°C° 0,4 mm 1 m/S 659 mmHg 72%
    18:00 +19°C° 0,4 mm 1 m/S 658 mmHg 79%
    19:00 +15°C° 0,4 mm 0 m/S 658 mmHg 87%
    20:00 +16°C° 0,1 mm 1 m/S 658 mmHg 89%
    21:00 +15°C° 0,1 mm 1 m/S 658 mmHg 90%
    22:00 +14°C° 0,1 mm 1 m/S 658 mmHg 92%
    23:00 +14°C° 0 mm 1 m/S 658 mmHg 93%

    22 August, Mittwoch

    Zeit Temperatur Niederschläge Wind Luftdruck Luftfeuchtigkeit
    00:00 +13°C° 0 mm 1 m/S 658 mmHg 93%
    01:00 +13°C° 0 mm 1 m/S 658 mmHg 94%
    02:00 +13°C° 0 mm 1 m/S 657 mmHg 93%
    03:00 +13°C° 0 mm 1 m/S 657 mmHg 93%
    04:00 +12°C° 0 mm 1 m/S 657 mmHg 93%
    05:00 +13°C° 0 mm 1 m/S 657 mmHg 91%
    06:00 +14°C° 0 mm 1 m/S 658 mmHg 88%
    07:00 +14°C° 0 mm 0 m/S 658 mmHg 86%
    08:00 +18°C° 0,1 mm 1 m/S 659 mmHg 79%
    09:00 +20°C° 0,1 mm 1 m/S 659 mmHg 73%
    10:00 +22°C° 0,1 mm 1 m/S 659 mmHg 67%
    11:00 +22°C° 0,5 mm 1 m/S 659 mmHg 66%
    12:00 +23°C° 0,5 mm 1 m/S 659 mmHg 66%
    13:00 +23°C° 0,5 mm 2 m/S 659 mmHg 65%
    14:00 +23°C° 0,8 mm 2 m/S 659 mmHg 67%
    15:00 +22°C° 0,8 mm 1 m/S 659 mmHg 68%
    16:00 +22°C° 0,8 mm 1 m/S 658 mmHg 70%
    17:00 +21°C° 0,7 mm 1 m/S 658 mmHg 75%
    18:00 +19°C° 0,7 mm 1 m/S 658 mmHg 81%
    19:00 +16°C° 0,7 mm 0 m/S 658 mmHg 86%
    20:00 +15°C° 0,5 mm 0 m/S 658 mmHg 87%
    21:00 +15°C° 0,5 mm 1 m/S 658 mmHg 89%
    22:00 +15°C° 0,5 mm 1 m/S 658 mmHg 90%
    23:00 +14°C° 0,1 mm 1 m/S 657 mmHg 91%

    23 August, Donnerstag

    Zeit Temperatur Niederschläge Wind Luftdruck Luftfeuchtigkeit
    00:00 +14°C° 0,1 mm 1 m/S 657 mmHg 91%
    01:00 +14°C° 0,1 mm 1 m/S 657 mmHg 92%
    02:00 +13°C° 0 mm 1 m/S 657 mmHg 93%
    03:00 +13°C° 0 mm 1 m/S 657 mmHg 93%
    04:00 +13°C° 0 mm 1 m/S 656 mmHg 93%
    05:00 +13°C° 0,1 mm 1 m/S 657 mmHg 92%
    06:00 +14°C° 0,1 mm 1 m/S 657 mmHg 90%
    07:00 +14°C° 0,1 mm 0 m/S 657 mmHg 89%
    08:00 +18°C° 0,1 mm 1 m/S 657 mmHg 82%
    09:00 +20°C° 0,1 mm 1 m/S 658 mmHg 75%
    10:00 +21°C° 0,1 mm 1 m/S 658 mmHg 69%
    11:00 +22°C° 0,6 mm 1 m/S 658 mmHg 67%
    12:00 +22°C° 0,6 mm 1 m/S 658 mmHg 66%
    13:00 +23°C° 0,6 mm 1 m/S 657 mmHg 65%
    14:00 +22°C° 1,2 mm 1 m/S 657 mmHg 67%
    15:00 +22°C° 1,2 mm 1 m/S 657 mmHg 70%
    16:00 +22°C° 1,2 mm 1 m/S 657 mmHg 72%
    17:00 +20°C° 0,8 mm 1 m/S 656 mmHg 77%
    18:00 +19°C° 0,8 mm 1 m/S 656 mmHg 82%
    19:00 +15°C° 0,8 mm 0 m/S 655 mmHg 87%
    20:00 +16°C° 0,3 mm 1 m/S 655 mmHg 88%
    21:00 +15°C° 0,3 mm 1 m/S 655 mmHg 90%
    22:00 +14°C° 0,3 mm 1 m/S 655 mmHg 92%
    23:00 +14°C° 0,1 mm 1 m/S 655 mmHg 92%
    Mehr zeigen